Weather Roundup
Issued by NWS Springfield, MO

Home | Current Version | Previous Version | Text Only | Print | Product List | Glossary On
Versions: 1 2 3 4 5 6 7 8 9 10 11 12 13 14 15 16 17 18 19 20 21 22 23 24 25 26 27 28 29 30 31 32 33 34 35 36 37 38 39 40 41 42 43 44 45 46 47 48 49 50
000
NZUS99 KSGF 162207
HRRSGF

HOURLY WEATHER
NATIONAL WEATHER SERVICE SPRINGFIELD MO
500 PM CDT TUE SEP 16 2014

......SGF CWA......

CITY           SKY/WX    TMP DP  RH WIND       PRES   REMARKS
SPRINGFIELD    CLOUDY    74  60  61 E6        30.08F
JOPLIN         CLOUDY    74  64  71 NE5       30.07F
WEST PLAINS    CLOUDY    67  57  70 SE5       30.12S
ROLLA          HAZE      67  54  63 CALM      30.10F VSB 3/4
OSAGE BEACH    MOSUNNY   66  55  68 CALM      30.10F
BRANSON        CLOUDY    68  63  83 E5        30.11F

......SURROUNDING SGF CWA......

CITY           SKY/WX    TMP DP  RH WIND       PRES   REMARKS
CHANUTE        SUNNY     76  61  59 CALM      30.06F
PARSONS        MOSUNNY   76  64  66 VRB3      30.07F
COFFEYVILLE    SUNNY     75  64  68 E5        30.06F
EMPORIA        SUNNY     75  55  49 SE8       30.05F
GROVE OK       CLOUDY    75  68  78 CALM      30.07F
ROGERS AR      CLOUDY    74  66  76 NE6       30.09F
SILOAM SPRINGS CLOUDY    75  64  69 N5        30.08F
HARRISON AR    CLOUDY    68  65  90 SE3       30.10F
NEAR YELLVILLE CLOUDY    68  59  73 E5        30.10S

......KANSAS AND MISSOURI......

CITY           SKY/WX    TMP DP  RH WIND       PRES   REMARKS
KANSAS CTY INT SUNNY     70  51  51 VRB6      30.08F
DOWNTOWN KC    SUNNY     73  51  46 VRB3      30.07F
COLUMBIA       SUNNY     71  53  52 E3        30.10F
SEDALIA        SUNNY     71  54  54 S7        30.09F
ST JOSEPH      SUNNY     70  53  54 S8        30.07F
ST LOUIS       PTSUNNY   65  52  62 E5        30.12F
SPIRIT OF STL  MOSUNNY   67  53  61 N5        30.11F
KIRKSVILLE     SUNNY     66  48  52 SW3       30.11F
WICHITA        SUNNY     80  61  52 SE10      30.03F
TOPEKA         SUNNY     74  52  46 E6        30.06F
OLATHE         SUNNY     70  53  54 S5        30.07F

......TENNESSEE......

CITY           SKY/WX    TMP DP  RH WIND       PRES   REMARKS
MEMPHIS        PTSUNNY   78  67  68 N7        30.05F
NASHVILLE      PTSUNNY   74  60  61 N7        30.06F

......ARKANSAS.......

CITY           SKY/WX    TMP DP  RH WIND       PRES   REMARKS
FAYETTEVILLE   CLOUDY    74  69  85 N6        30.07F
FT SMITH       MOSUNNY   85  69  58 N6        30.01F
LITTLE ROCK    PTSUNNY   79  66  64 E9        30.05S

......OKLAHOMA.......

CITY           SKY/WX    TMP DP  RH WIND       PRES   REMARKS
TULSA          CLOUDY    76  64  66 CALM      30.04F
PONCA CITY     SUNNY     76  64  66 E7        30.04F
MCALESTER      SUNNY     88  68  51 CALM      30.02F HX  91
OKLAHOMA CITY  PTSUNNY   85  70  60 NE10      30.02F

......IOWA............

CITY           SKY/WX    TMP DP  RH WIND       PRES   REMARKS
DES MOINES     SUNNY     67  47  48 S7        30.08F
QUAD CITIES    SUNNY     68  44  42 CALM      30.11F

......ILLINOIS........

CITY           SKY/WX    TMP DP  RH WIND       PRES   REMARKS
QUINCY         SUNNY     67  47  48 CALM      30.10F
CHICAGO        SUNNY     67  40  37 W5        30.10F



USA.gov is the U.S. government's official web portal to all federal, state and local government web resources and services.